Regional Weather Roundup
Issued by NWS

Home | Current Version | Previous Version | Graphics & Text | Print | Product List | Glossary On
Versions: 1 2 3 4 5 6 7 8 9 10 11 12 13 14 15 16 17 18 19 20 21 22 23 24 25 26 27 28 29 30 31 32 33 34 35 36 37 38 39 40 41 42 43 44 45 46 47 48 49 50
000
ASUS43 KTOP 251659
RWRKS

WEATHER ROUNDUP FOR KANSAS
NATIONAL WEATHER SERVICE GOODLAND KS
1200 PM CDT MON JUL 25 2016

NOTE:  "FAIR" INDICATES FEW OR NO CLOUDS BELOW 12,000 FEET WITH NO
SIGNIFICANT WEATHER AND/OR OBSTRUCTIONS TO VISIBILITY.

KSZ001>006-013>018-027>032-041>047-251800-
NORTHWEST KANSAS

CITY           SKY/WX    TMP DP  RH WIND       PRES   REMARKS
GOODLAND       SUNNY     79  62  56 SE13      30.19F
HAYS           CLOUDY    75  63  64 S6        30.15R
HILL CITY      SUNNY     79  69  71 SE10      30.16F
RUSSELL        CLOUDY    75  69  81 NE6       30.13R
$$

KSZ061>065-074>080-084>089-251800-
SOUTHWEST KANSAS

CITY           SKY/WX    TMP DP  RH WIND       PRES   REMARKS
DODGE CITY     MOSUNNY   78  68  71 E13       30.17S
ELKHART          N/A     79  67  66 NE10        N/A
GARDEN CITY    CLOUDY    74  66  76 E14       30.18S
GREAT BEND     CLOUDY    75  64  69 SE13      30.13F
LIBERAL        PTSUNNY   77  68  73 NE12      30.18F
$$

KSZ066>073-081>083-090>101-251800-
SOUTHEAST KANSAS

CITY           SKY/WX    TMP DP  RH WIND       PRES   REMARKS
CHANUTE        CLOUDY    75  72  90 E12       30.03F
COFFEYVILLE    CLOUDY    75  70  84 E12G22    30.05S
HUTCHINSON     CLOUDY    74  68  81 N8        30.12R
NEWTON         CLOUDY    76  71  85 CALM      30.10R
PARSONS          N/A    N/A N/A N/A MISG      30.05F
WICHITA INTL   PTSUNNY   79  67  66 S5        30.09R
WICHITA JABRA  CLOUDY    78  69  73 VRB5      30.08R
WINFIELD       MOSUNNY   78  69  73 E9        30.08R
$$

KSZ007>012-019>026-033>040-048>060-102>105-251800-
NORTHEAST KANSAS

CITY           SKY/WX    TMP DP  RH WIND       PRES   REMARKS
CONCORDIA      CLOUDY    73  67  81 VRB3      30.13S
EMPORIA        PTSUNNY   73  71  93 E12       30.03F
LAWRENCE       CLOUDY    76  69  79 E6        30.08F
MANHATTAN      LGT RAIN  74  69  85 VRB3      30.08F
OLATHE IND       N/A     75  70  84 W5        30.10F
OLATHE EXE     CLOUDY    74  69  85 NW6       30.10F
SALINA         CLOUDY    73  69  87 CALM      30.12S
TOPEKA BILLARD CLOUDY    75  70  84 CALM      30.08F
TOPEKA FORBES  LGT RAIN  75  71  87 NE5       30.09F
$$




USA.gov is the U.S. government's official web portal to all federal, state and local government web resources and services.